Retour au catalogue

SL-8 R/B

ActifPO
NORAD 10492·ROCKET BODY·🇷🇺 Russia

Lancé Nov 24, 1977 depuis Plesetsk Cosmodrome

Loading…

Prochains Passages (prochaines 24 heures)

TLE

FraisSource: Space-Track

Époque: Sep 14, 2026, 04:36 UTC

1 10492U 77109B   26257.19201163  .00000053  00000-0  99157-4 0  9998
2 10492  82.9262 166.5129 0021288  90.8965  62.6748 13.19791453350368

Suivez SL-8 R/B en temps réel avec AllMySat

Download on the App Store